[[{"header":{"parameterUnit":"m.s-1","parameterCategory":1,"la1":30.2991,"la2":30.254,"lo1":-89.0895,"lo2":-89.0444,"dy":0.0017,"dx":0.0017,"nx":28,"ny":28,"refTime":"2025-01-15T09:00:00:Z","depth":0,"parameterNumber":2,"parameterNumberName":"U-component_of_WINDS"},"data":[0,0,0,0,0,0,0,0,0,0,0,0,0,0,0,0,0,0,0,0,0,0,0,0,0,0,0,0,0,0,0,0,0,0,0,0,0,0,0,0,0,0,0,0,0,0,0,0,0,0,0,0,0,0,0,0,0,0,-2.2455,-2.2455,0,-2.2507,-2.2508,-2.2508,-2.2429,-2.2426,-2.2423,-2.2421,-2.2476,-2.248,-2.2484,0,0,0,0,0,0,0,0,0,0,0,0,0,-2.2286,-2.229,-2.2455,-2.2455,-2.2456,-2.2507,-2.2508,-2.2509,-2.2429,-2.2426,-2.2423,-2.2419,-2.2475,-2.248,-2.2485,0,0,0,0,0,0,0,0,0,0,0,0,0,-2.2351,-2.2291,-2.2455,-2.2423,-2.242,-2.2507,-2.2508,-2.2509,-2.243,-2.2426,-2.2422,-2.2418,-2.2473,-2.2479,-2.2485,-2.2607,0,0,-2.2504,-2.2507,0,0,0,0,0,0,0,0,-2.2348,-2.2358,-2.2427,-2.2425,-2.2422,-2.2457,-2.2469,-2.2542,-2.2431,-2.2426,-2.2421,-2.2416,-2.2473,-2.2479,-2.2498,-2.2609,-2.2612,-2.2505,-2.2508,-2.2511,-2.2513,0,0,0,0,0,0,0,-2.2343,-2.2355,-2.2475,-2.2428,-2.2425,-2.2406,-2.241,-2.2482,-2.2473,-2.2426,-2.2421,-2.2428,-2.2472,-2.2493,-2.2499,-2.2612,-2.2504,-2.251,-2.2514,-2.2516,-2.2825,-2.2829,0,0,0,0,0,0,-2.2343,-2.2352,-2.2474,-2.2477,-2.2374,-2.2412,-2.2417,-2.245,-2.2472,-2.2471,-2.2432,-2.2424,-2.2484,-2.2492,-2.2501,-2.2644,-2.2511,-2.2517,-2.252,-2.282,-2.2826,-2.2831,0,0,0,0,0,0,-2.2339,-2.2354,-2.2472,-2.2413,-2.2426,-2.242,-2.2457,-2.2454,-2.2475,-2.2475,-2.2474,-2.2455,-2.2481,-2.2492,-2.2581,-2.2645,-2.2519,-2.2525,-2.2815,-2.2822,-2.2828,-2.2933,0,0,0,0,0,0,-2.2335,-2.2354,-2.24,-2.2414,-2.243,-2.2551,-2.2461,-2.2458,-2.2485,-2.2476,-2.2497,-2.2496,-2.2479,-2.2572,-2.2587,-2.2651,-2.253,-2.2809,-2.2818,-2.2826,-2.2924,-2.2942,-2.2958,0,0,0,0,0,-2.2329,-2.2427,-2.2402,-2.2418,-2.2487,-2.2555,-2.2564,-2.2541,-2.2491,-2.2537,-2.2537,-2.2496,-2.2635,-2.2582,-2.2598,-2.2665,-2.2805,-2.2815,-2.2825,-2.2916,-2.2939,-2.2958,0,0,0,0,0,0,-2.2421,-2.2429,-2.2401,-2.2507,-2.2531,-2.2541,-2.2599,-2.2566,-2.2605,-2.2595,-2.2565,-2.2571,-2.2666,-2.2674,-2.2614,-2.2783,-2.2712,-2.2726,-2.2775,-2.2797,-2.2814,-2.2811,-2.2535,0,0,0,0,0,-2.2454,-2.2508,-2.2511,-2.2605,-2.2618,-2.2607,-2.2635,-2.2615,-2.2639,-2.2649,-2.2656,-2.2681,-2.273,-2.2763,-2.2809,-2.2923,-2.2927,-2.2977,-2.2995,-2.3009,-2.3022,-2.3083,-2.3106,-2.2864,-2.2864,-2.2864,0,0,-2.2522,-2.2533,-2.2569,-2.2623,-2.264,-2.2697,-2.2616,-2.268,-2.2722,-2.2659,-2.2743,-2.2749,-2.2774,-2.2877,-2.2922,-2.2886,-2.3089,-2.3022,-2.3033,-2.3039,-2.3096,-2.3119,-2.314,-2.2871,-2.287,-2.2869,0,0,-2.2676,-2.2689,-2.2768,-2.2785,-2.281,-2.2802,-2.2821,-2.2836,-2.2837,-2.2921,-2.2875,-2.2924,-2.301,-2.303,-2.3052,-2.3211,-2.3174,-2.3226,-2.3318,-2.3378,-2.3397,-2.3414,-2.3472,-2.3493,-2.3239,-2.3239,-2.3239,0,-2.2758,-2.2842,-2.2813,-2.288,-2.2906,-2.285,-2.293,-2.2948,-2.2987,-2.3006,-2.2965,-2.3071,-2.3084,-2.319,-2.3229,-2.3248,-2.3269,-2.3225,-2.3397,-2.3413,-2.3429,-2.3483,-2.3505,-2.3245,-2.3245,-2.3244,-2.3243,0,-2.2942,-2.3,-2.3061,-2.3099,-2.3131,-2.3205,-2.3188,-2.3223,-2.32,-2.3196,-2.3282,-2.3295,-2.3342,-2.3365,-2.3344,-2.3469,-2.3446,-2.3401,-2.3329,-2.3458,-2.351,-2.353,-2.3254,-2.3252,-2.325,-2.3249,0,0,-2.3158,-2.3178,-2.3201,-2.3217,-2.324,-2.3285,-2.3355,-2.34,-2.3432,-2.346,-2.3519,-2.3591,-2.355,-2.3574,-2.3554,-2.3606,-2.3733,-2.3555,-2.3555,-2.3589,-2.3872,-2.3907,-2.3931,-2.3707,-2.3711,-2.3714,-2.387,0,-2.3312,-2.3433,-2.3409,-2.3528,-2.3582,-2.3529,-2.359,-2.361,-2.3608,-2.3653,-2.365,-2.3703,-2.3643,-2.3658,-2.3707,-2.3707,-2.3789,-2.3695,-2.3763,-2.3766,-2.376,-2.3958,-2.3995,-2.4142,-2.389,-2.3893,-2.3895,0,-2.3509,-2.3543,-2.3668,-2.3681,-2.3703,-2.3758,-2.3797,-2.3841,-2.3863,-2.3857,-2.3884,-2.3853,-2.3923,-2.3848,-2.3944,-2.3881,-2.3906,-2.391,-2.3915,-2.3923,-2.384,-2.3972,-2.4188,-2.4211,-2.3926,-2.3924,-2.3922,0,-2.3656,-2.3733,-2.3818,-2.3833,-2.385,-2.3891,-2.39,-2.3917,-2.3945,-2.3979,-2.3998,-2.404,-2.4063,-2.4096,-2.4077,-2.4024,-2.4177,-2.4101,-2.4175,-2.4176,-2.4212,-2.4211,-2.4437,-2.4226,-2.4225,-2.4225,-2.4224,0,-2.3832,-2.3911,-2.3884,-2.3936,-2.4022,-2.3993,-2.4079,-2.4082,-2.4097,-2.4149,-2.4105,-2.4154,-2.4126,-2.4173,-2.4159,-2.4241,-2.4251,-2.4249,-2.4245,-2.4255,-2.4255,-2.4273,-2.4263,-2.4231,-2.4229,-2.4228,-2.4227,0,-2.4012,-2.3997,-2.4086,-2.4094,-2.4097,-2.4161,-2.4168,-2.4217,-2.4209,-2.4276,-2.4289,-2.4279,-2.4332,-2.4316,-2.4374,-2.4364,-2.4469,-2.445,-2.4462,-2.4458,-2.4534,-2.4528,-2.4781,-2.4813,-2.458,-2.4582,-2.4584,0,-2.4126,-2.4185,-2.4199,-2.4231,-2.4243,-2.4294,-2.4322,-2.4295,-2.4326,-2.4355,-2.44,-2.4449,-2.4487,-2.4575,-2.4573,-2.4616,-2.46,-2.4685,-2.4606,-2.4614,-2.4603,-2.46,-2.4606,-2.4702,-2.4705,-2.4707,-2.4709,0,-2.4332,-2.4321,-2.4363,-2.4404,-2.4439,-2.4469,-2.4495,-2.4523,-2.4497,-2.4535,-2.4589,-2.4618,-2.4676,-2.4726,-2.4765,-2.4774,-2.4738,-2.4733,-2.4753,-2.4765,-2.4769,-2.4769,-2.4507,-2.4728,-2.4726,-2.4725,-2.4724,-2.4723,-2.4483,-2.4533,-2.4551,-2.46,-2.4616,-2.4641,-2.4687,-2.4686,-2.473,-2.4775,-2.4755,-2.4817,-2.4836,-2.4885,-2.4899,-2.4947,-2.4915,-2.4943,-2.4951,-2.4959,-2.4969,-2.476,-2.4954,-2.4954,-2.4953,-2.4953,-2.4952,0,-2.4688,-2.4696,-2.4741,-2.4778,-2.4817,-2.4777,-2.4804,-2.4839,-2.4894,-2.4914,-2.4952,-2.5013,-2.5061,-2.5061,-2.5105,-2.5144,-2.5128,-2.5156,-2.5154,-2.5157,-2.4995,-2.4974,-2.5168,-2.5168,-2.5168,-2.5168,-2.5168,-2.5168,-2.4799,-2.4881,-2.4872,-2.4962,-2.497,-2.503,-2.5048,-2.5071,-2.5087,-2.5158,-2.5197,-2.5196,-2.5209,-2.5253,-2.5295,-2.5294,-2.5313,-2.5348,-2.5341,-2.519,-2.5169,-2.5148,-2.5129,-2.5352,-2.5352,-2.5499,-2.55,-2.5501]},{"header":{"parameterUnit":"m.s-1","parameterCategory":1,"la1":30.2991,"la2":30.254,"lo1":-89.0895,"lo2":-89.0444,"dy":0.0017,"dx":0.0017,"nx":28,"ny":28,"refTime":"2025-01-15T09:00:00:Z","depth":0,"parameterNumber":3,"parameterNumberName":"V-component_of_WINDS"},"data":[0,0,0,0,0,0,0,0,0,0,0,0,0,0,0,0,0,0,0,0,0,0,0,0,0,0,0,0,0,0,0,0,0,0,0,0,0,0,0,0,0,0,0,0,0,0,0,0,0,0,0,0,0,0,0,0,0,0,-3.5556,-3.5556,0,-3.5584,-3.5584,-3.5584,-3.5508,-3.5506,-3.5503,-3.5501,-3.5529,-3.5531,-3.5534,0,0,0,0,0,0,0,0,0,0,0,0,0,-3.5434,-3.5436,-3.5556,-3.5556,-3.5556,-3.5584,-3.5584,-3.5584,-3.5509,-3.5506,-3.5503,-3.55,-3.5528,-3.5531,-3.5535,0,0,0,0,0,0,0,0,0,0,0,0,0,-3.5477,-3.5437,-3.5555,-3.5522,-3.5519,-3.5584,-3.5584,-3.5585,-3.5509,-3.5506,-3.5502,-3.5499,-3.5526,-3.5531,-3.5535,-3.5633,0,0,-3.5548,-3.555,0,0,0,0,0,0,0,0,-3.5474,-3.5481,-3.5526,-3.5524,-3.5521,-3.5539,-3.5551,-3.5601,-3.551,-3.5513,-3.5501,-3.5497,-3.5535,-3.5538,-3.5551,-3.5634,-3.5636,-3.5549,-3.5552,-3.5553,-3.5555,0,0,0,0,0,0,0,-3.5471,-3.548,-3.5567,-3.5527,-3.5524,-3.5504,-3.5507,-3.556,-3.5543,-3.5512,-3.5507,-3.5511,-3.5533,-3.5547,-3.5551,-3.5636,-3.5549,-3.5553,-3.5555,-3.5557,-3.58,-3.5804,0,0,0,0,0,0,-3.5473,-3.5478,-3.5566,-3.5567,-3.5489,-3.5509,-3.5512,-3.5537,-3.5542,-3.554,-3.5514,-3.5508,-3.5541,-3.5546,-3.5552,-3.5667,-3.5553,-3.5558,-3.556,-3.5796,-3.5801,-3.5805,0,0,0,0,0,0,-3.5471,-3.5482,-3.5565,-3.5521,-3.553,-3.5515,-3.5544,-3.5539,-3.5554,-3.5544,-3.554,-3.5533,-3.5539,-3.5546,-3.5613,-3.5667,-3.5559,-3.5563,-3.5792,-3.5798,-3.5803,-3.5898,0,0,0,0,0,0,-3.5468,-3.5481,-3.5519,-3.5523,-3.5533,-3.5627,-3.5547,-3.5542,-3.5562,-3.5553,-3.556,-3.5558,-3.5537,-3.5607,-3.5618,-3.5671,-3.5567,-3.5787,-3.5794,-3.5801,-3.589,-3.5906,-3.592,0,0,0,0,0,-3.5463,-3.5544,-3.5521,-3.5532,-3.558,-3.563,-3.5636,-3.561,-3.5566,-3.5604,-3.5597,-3.5558,-3.5659,-3.5615,-3.5626,-3.5681,-3.5784,-3.5792,-3.5801,-3.5883,-3.5903,-3.592,0,0,0,0,0,0,-3.5547,-3.5544,-3.5519,-3.5603,-3.5618,-3.5617,-3.5663,-3.5632,-3.5658,-3.5649,-3.5616,-3.5618,-3.5692,-3.5693,-3.5644,-3.5776,-3.5714,-3.5725,-3.5773,-3.5791,-3.5806,-3.5804,-3.5571,0,0,0,0,0,-3.5576,-3.5617,-3.5612,-3.5687,-3.5696,-3.5679,-3.5699,-3.5678,-3.5691,-3.5697,-3.5695,-3.5709,-3.5744,-3.5767,-3.5799,-3.5889,-3.5889,-3.5933,-3.5948,-3.596,-3.597,-3.6018,-3.6037,-3.5833,-3.5833,-3.5833,0,0,-3.5635,-3.5638,-3.5667,-3.5704,-3.5713,-3.5756,-3.5684,-3.5733,-3.5764,-3.5704,-3.5768,-3.5767,-3.578,-3.586,-3.5895,-3.5863,-3.6026,-3.5971,-3.5981,-3.5985,-3.6028,-3.6048,-3.6065,-3.5839,-3.5838,-3.5837,0,0,-3.5764,-3.5772,-3.5835,-3.5845,-3.5858,-3.5846,-3.5862,-3.5866,-3.5863,-3.5927,-3.5882,-3.5919,-3.598,-3.599,-3.6004,-3.6137,-3.6101,-3.6148,-3.6227,-3.6273,-3.6289,-3.6303,-3.635,-3.6368,-3.6158,-3.6158,-3.6158,0,-3.5836,-3.59,-3.5871,-3.5923,-3.594,-3.5888,-3.5951,-3.5962,-3.5985,-3.5998,-3.5963,-3.6038,-3.6043,-3.6124,-3.6156,-3.6169,-3.6185,-3.6147,-3.6289,-3.6303,-3.6316,-3.636,-3.6378,-3.6164,-3.6163,-3.6163,-3.6162,0,-3.5987,-3.6032,-3.6081,-3.6105,-3.6128,-3.6186,-3.6165,-3.6191,-3.6168,-3.6159,-3.6224,-3.6228,-3.626,-3.6277,-3.6255,-3.6355,-3.6335,-3.6295,-3.6232,-3.6341,-3.6383,-3.6399,-3.6172,-3.617,-3.6168,-3.6167,0,0,-3.6171,-3.6178,-3.6197,-3.6207,-3.6218,-3.6251,-3.6306,-3.6337,-3.636,-3.6377,-3.6422,-3.6474,-3.6437,-3.6453,-3.6431,-3.6472,-3.6576,-3.6426,-3.6426,-3.6454,-3.6686,-3.6716,-3.6737,-3.6552,-3.6555,-3.6558,-3.6685,0,-3.6299,-3.6393,-3.6368,-3.6462,-3.6502,-3.6453,-3.65,-3.6511,-3.6505,-3.6537,-3.6529,-3.6567,-3.6515,-3.6524,-3.6562,-3.6556,-3.6622,-3.6546,-3.6593,-3.6595,-3.6592,-3.6758,-3.679,-3.691,-3.6701,-3.6704,-3.6706,0,-3.6461,-3.6485,-3.6583,-3.6586,-3.6602,-3.6646,-3.6671,-3.6704,-3.6715,-3.6707,-3.6724,-3.6694,-3.6747,-3.6683,-3.6755,-3.6703,-3.6721,-3.672,-3.6724,-3.6728,-3.6657,-3.6766,-3.6948,-3.6966,-3.6731,-3.6729,-3.6727,0,-3.6585,-3.6642,-3.6707,-3.6718,-3.6724,-3.6755,-3.6759,-3.6767,-3.6787,-3.6809,-3.6821,-3.6849,-3.6865,-3.6887,-3.6865,-3.6821,-3.694,-3.6874,-3.6934,-3.6935,-3.6962,-3.6961,-3.7149,-3.6973,-3.6973,-3.6973,-3.6972,0,-3.673,-3.6792,-3.6763,-3.6804,-3.6871,-3.6841,-3.6909,-3.6907,-3.6914,-3.6953,-3.6911,-3.6948,-3.6916,-3.695,-3.6933,-3.6995,-3.7002,-3.6997,-3.6991,-3.7001,-3.7001,-3.7012,-3.7003,-3.6978,-3.6977,-3.6976,-3.6975,0,-3.6881,-3.6864,-3.6932,-3.6932,-3.6934,-3.6983,-3.6983,-3.702,-3.701,-3.7059,-3.7069,-3.7053,-3.709,-3.707,-3.7109,-3.7097,-3.7178,-3.7161,-3.7174,-3.717,-3.7231,-3.7225,-3.7432,-3.7458,-3.7266,-3.7268,-3.727,0,-3.6975,-3.7021,-3.7026,-3.7049,-3.7056,-3.7094,-3.7114,-3.7086,-3.7108,-3.7125,-3.716,-3.7194,-3.7219,-3.7282,-3.7273,-3.7302,-3.7286,-3.7357,-3.729,-3.7298,-3.7287,-3.7285,-3.7289,-3.737,-3.7372,-3.7374,-3.7376,0,-3.7144,-3.7133,-3.7164,-3.7192,-3.7217,-3.7238,-3.7255,-3.7276,-3.7248,-3.7276,-3.7314,-3.7334,-3.7373,-3.7408,-3.7433,-3.7435,-3.7401,-3.7397,-3.7412,-3.7422,-3.7428,-3.7425,-3.7211,-3.7392,-3.7391,-3.7389,-3.7388,-3.7388,-3.7269,-3.7307,-3.7317,-3.7352,-3.7362,-3.7379,-3.7414,-3.7408,-3.7439,-3.747,-3.7451,-3.7496,-3.7505,-3.7535,-3.7542,-3.7576,-3.7548,-3.757,-3.7576,-3.7582,-3.7591,-3.7422,-3.7581,-3.758,-3.758,-3.7579,-3.7579,0,-3.7435,-3.7439,-3.7472,-3.7497,-3.7525,-3.749,-3.7507,-3.7532,-3.7573,-3.7584,-3.7611,-3.7654,-3.7687,-3.7681,-3.771,-3.7739,-3.7724,-3.7747,-3.7745,-3.7746,-3.7614,-3.7598,-3.7759,-3.7759,-3.7759,-3.7759,-3.7759,-3.7759,-3.7525,-3.7589,-3.7579,-3.7646,-3.7649,-3.7693,-3.7706,-3.7721,-3.773,-3.778,-3.7808,-3.7803,-3.7808,-3.7837,-3.7865,-3.7862,-3.7875,-3.7905,-3.7897,-3.7773,-3.7756,-3.7739,-3.7723,-3.7908,-3.7908,-3.8025,-3.8027,-3.8027]}]]